User: anonymous   Login
Location: Caltech
(34.1382°N, 118.1253°W)
Time: 12:48:41
(UTC-07:00)
Language:

Cosmos 1943 Rocket - Orbit

View from above orbital plane
View from above orbital plane
View from above satellite
View from above satellite

Ground track
Ground track

The orbit data is extracted from the following two-line orbital elements,

1 19120U 88039B   15117.68167070  .00000061  00000-0  52172-4 0  9999
2 19120 071.0148 176.1209 0023791 303.0085 056.8754 14.19102311395514
Epoch (UTC): 27 April 2015 16:21:36
Eccentricity: 0.0023791
inclination: 71.0148°
perigee height: 811 km
apogee height: 845 km
right ascension of ascending node: 176.1209°
argument of perigee: 303.0085°
revolutions per day: 14.19102311
mean anomaly at epoch: 56.8754°
orbit number at epoch: 39551

The dashed part of the orbit path shows where the satellite is in the earth's shadow,  

DLR